San Carlos, CA

9:01 AM PST on December 15, 2017 (GMT -0800)
San Carlos

Weather History for KSQL - May, 2013

Change the Weather History Date:

Friday, May 24, 2013

  Actual Average Record
Temperature  
Mean Temperature 57 °F -  
Max Temperature 66 °F 76 °F 100 °F (1982)
Min Temperature 48 °F 49 °F 42 °F (1961)
Degree Days  
Heating Degree Days 8    
Growing Degree Days 7 (Base 50)    
Moisture  
Dew Point 42 °F    
Average Humidity 66    
Maximum Humidity 82    
Minimum Humidity 40    
Precipitation  
Precipitation 0.00 in - - ()
Sea Level Pressure  
Sea Level Pressure 30.01 in    
Wind  
Wind Speed 5 mph (West)    
Max Wind Speed 21 mph    
Max Gust Speed 31 mph    
Visibility 10 miles    
Events      
Averages and records for this station are not official NWS values.
T = Trace of Precipitation, MM = Missing Value Source: NWS Daily Summary

Daily Weather History Graph

Daily Weather History Graph

Search for Another Location

Airport or City:

Trip Planner

Search our weather history database for the weather conditions in past years. The results will help you decide how hot, cold, wet, or windy it might be!

Date:

Astronomy

May. 24, 2013 Rise Set
Actual Time 5:53 AM PDT 8:19 PM PDT
Civil Twilight 5:23 AM PDT 8:49 PM PDT
Nautical Twilight 4:46 AM PDT 9:26 PM PDT
Astronomical Twilight 4:05 AM PDT 10:07 PM PDT
Moon 8:07 PM PDT (5/24) 5:28 AM PDT (5/24)
Length of Visible Light 15h 26m
Length of Day
14h 25m
Full, 100% of the Moon is Illuminated
May 24
Full
May 24
Full
May 31
Last Quarter
Jun 8
New
Jun 16
First Quarter

Hourly Weather History & Observations

Time (PDT) Temp. Dew Point Humidity Pressure Visibility Wind Dir Wind Speed Gust Speed Precip Events Conditions
12:10 AM 53.6 °F 41.0 °F 62% 30.02 in 10.0 mi WNW 3.5 mph - N/A   Clear
12:30 AM 51.8 °F 41.0 °F 67% 30.02 in 10.0 mi Calm Calm - N/A   Clear
12:50 AM 51.8 °F 37.4 °F 58% 30.02 in 10.0 mi Calm Calm - N/A   Clear
1:10 AM 51.8 °F 41.0 °F 67% 30.01 in 10.0 mi Calm Calm - N/A   Clear
1:30 AM 50.0 °F 41.0 °F 71% 30.01 in 10.0 mi Calm Calm - N/A   Clear
1:50 AM 50.0 °F 41.0 °F 71% 30.01 in 10.0 mi NW 3.5 mph - N/A   Clear
2:10 AM 50.0 °F 41.0 °F 71% 30.00 in 10.0 mi Calm Calm - N/A   Clear
2:30 AM 50.0 °F 39.2 °F 66% 30.00 in 10.0 mi Calm Calm - N/A   Clear
2:50 AM 50.0 °F 41.0 °F 71% 30.00 in 10.0 mi NW 5.8 mph - N/A   Clear
3:10 AM 50.0 °F 41.0 °F 71% 30.00 in 10.0 mi WNW 3.5 mph - N/A   Clear
3:30 AM 50.0 °F 41.0 °F 71% 30.00 in 10.0 mi Calm Calm - N/A   Clear
3:50 AM 48.2 °F 39.2 °F 71% 30.00 in 10.0 mi Calm Calm - N/A   Clear
4:10 AM 48.2 °F 41.0 °F 76% 30.00 in 10.0 mi Calm Calm - N/A   Clear
4:30 AM 50.0 °F 41.0 °F 71% 29.99 in 10.0 mi Calm Calm - N/A   Clear
4:50 AM 48.2 °F 41.0 °F 76% 30.00 in 10.0 mi WNW 3.5 mph - N/A   Clear
5:10 AM 48.2 °F 41.0 °F 76% 30.00 in 10.0 mi Calm Calm - N/A   Clear
5:30 AM 50.0 °F 41.0 °F 71% 30.01 in 10.0 mi WNW 6.9 mph - N/A   Clear
5:50 AM 50.0 °F 41.0 °F 71% 30.01 in 10.0 mi WNW 3.5 mph - N/A   Clear
6:10 AM 50.0 °F 41.0 °F 71% 30.01 in 10.0 mi WSW 3.5 mph - N/A   Clear
6:30 AM 50.0 °F 41.0 °F 71% 30.01 in 10.0 mi SW 3.5 mph - N/A   Clear
6:47 AM 50.0 °F 41.0 °F 71% 30.02 in 10.0 mi Calm Calm - N/A   Clear
6:50 AM 50.0 °F 41.0 °F 71% 30.02 in 10.0 mi Calm Calm - N/A   Clear
7:47 AM 53.6 °F 42.8 °F 67% 30.03 in 10.0 mi Calm Calm - N/A   Clear
8:55 AM 57.2 °F 41.0 °F 55% 30.03 in 10.0 mi WNW 5.8 mph - N/A   Clear
9:59 AM 59.0 °F 41.0 °F 51% 30.02 in 10.0 mi WNW 10.4 mph - N/A   Clear
10:47 AM 62.6 °F 41.0 °F 45% 30.02 in 10.0 mi NW 10.4 mph - N/A   Clear
11:47 AM 62.6 °F 42.8 °F 48% 30.02 in 10.0 mi West 9.2 mph - N/A   Clear
12:48 PM 62.6 °F 41.0 °F 45% 30.01 in 10.0 mi West 17.3 mph 21.9 mph N/A   Clear
1:55 PM 66.2 °F 41.0 °F 40% 30.00 in 10.0 mi West 16.1 mph 21.9 mph N/A   Partly Cloudy
2:56 PM 64.4 °F 42.8 °F 45% 30.00 in 10.0 mi SW 20.7 mph 25.3 mph N/A   Partly Cloudy
3:55 PM 60.8 °F 44.6 °F 55% 30.00 in 10.0 mi West 20.7 mph 31.1 mph N/A   Partly Cloudy
4:47 PM 59.0 °F 44.6 °F 59% 30.01 in 10.0 mi West 15.0 mph 25.3 mph N/A   Partly Cloudy
5:57 PM 59.0 °F 42.8 °F 55% 30.01 in 10.0 mi WSW 15.0 mph - N/A   Scattered Clouds
6:55 PM 57.2 °F 41.0 °F 55% 30.00 in 10.0 mi WSW 13.8 mph 17.3 mph N/A   Partly Cloudy
7:47 PM 53.6 °F 42.8 °F 67% 30.01 in 10.0 mi WSW 15.0 mph - N/A   Partly Cloudy
8:47 PM 53.6 °F 41.0 °F 62% 30.01 in 10.0 mi SW 10.4 mph - N/A   Partly Cloudy
9:10 PM 51.8 °F 41.0 °F 67% 30.01 in 10.0 mi WSW 11.5 mph 17.3 mph N/A   Clear
9:30 PM 51.8 °F 42.8 °F 71% 30.02 in 10.0 mi WSW 15.0 mph - N/A   Clear
9:50 PM 51.8 °F 42.8 °F 71% 30.02 in 10.0 mi WSW 12.7 mph - N/A   Clear
10:10 PM 51.8 °F 42.8 °F 71% 30.02 in 10.0 mi WSW 10.4 mph 18.4 mph N/A   Clear
10:30 PM 51.8 °F 42.8 °F 71% 30.03 in 10.0 mi WSW 6.9 mph - N/A   Clear
10:50 PM 51.8 °F 42.8 °F 71% 30.03 in 10.0 mi WSW 12.7 mph - N/A   Clear
11:10 PM 51.8 °F 44.6 °F 76% 30.02 in 10.0 mi West 8.1 mph - N/A   Clear
11:30 PM 50.0 °F 44.6 °F 82% 30.03 in 10.0 mi West 8.1 mph - N/A   Clear
11:50 PM 50.0 °F 44.6 °F 82% 30.02 in 10.0 mi West 8.1 mph - N/A   Clear